FREGAT R/B, 41106

Orbit data source: Space-Track

FREGAT R/B, 41106 is space debris in GEO originally from a launch on Fri, 11 Dec 2015 UTC launched from the Tyuratam Missile And Space Complex (TTMTR). Debris objects in space refer to the collection of defunct objects orbiting the Earth. Examples of debris include non-operational satellites, rocket bodies, and fragments generated from explosions, collisions, or faulty payload assembly.

Loading next visibility...
Identifier
41106, 2015-074B
Orbit
GEO
Last TLE update
1 day ago
Origin
Manufacturer
Lavochkin
Mission
Spacecraft
Bus & Motor
FREGAT, Unknown motor
Mass
1,000 kg wet, 1,000 kg dry
Launch date (UTC)
2015-12-11 (10 years ago)
Launch vehicle
Unknown
Launch site
Tyuratam Missile And Space Complex (TTMTR)
Object type
Payload
Rocket body
Debris
Shape & HBR
Cyl, 3.3 m
Radar Cross Section
8.683 m²

Expand to show TLE details & history

TLE from 1 day ago
0 FREGAT R/B
1 41106U 15074B   25185.60036541 -.00000232  00000-0  00000-0 0  9993
2 41106   7.3055  65.8629 0197448 349.4953  10.0265  1.02895208 35939
Epoch: 2025-07-04T14:24Z
TLE epoch observation values (Epoch: 2025-07-04T14:24:31.571Z)
Latitude
-0°
Longitude
-73.19687°
Altitude
34,260.265 km
Speed
3.162 km/s
True Right ascension
04h 23m 08s
True Declination
0° 00' 00"
Sunlit
Object was in daylight at epoch
Visualization orbit readout
Latitude
5.70785°
Longitude
55.8064°
Altitude
35,675.949 km
Speed
3.056 km/s
Apparent Right ascension
13h 20m 00s
Apparent Declination
0° 09' 34"
Sunlit
Object is in daylight
Visualization observer readout
Local Sidereal Time
09:56:22
Azimuth
117.41° SE
Elevation
29.04°
Doppler factor
1
Orbital elements
Apogee altitude
35,886.231 km
Perigee altitude
34,249.544 km
Semi-major axis
41,446.025 km
Eccentricity
0.01974
Inclination
7.3055°
RAAN
65.8629°
Arg. of periapsis
349.4953°
True anomaly
Unknown
Mean anomaly
10.0265°
Eccentric anomaly
Unknown
Mean motion
0.25723 °/min
Orbital period
1,399.53 mins
BSTAR
0
Loading historical data...
41106 neighbors
Loading maneuver chart data...
Loading SW <> Apogee altitude chart data...
Loading historical data...
Loading historical data...
Loading historical data...
Loading historical data...
Loading historical data...
Loading historical data...
Loading historical data...

FREGAT R/B Visibility forecast

Observer location: undefined°, undefined°

Span
Click to sort rows by Start time (UTC) header in descending order
Start Az.
Max El. time (UTC)
Max El. Az.
Max El.
End time (UTC)
End Az.
1440 mins2025-07-05 22:00:15.347Z117.426° SE2025-07-05 22:00:15.347Z117.426° SE25.887°2025-07-06 22:00:15.347Z110.462° ESE
|